Regional Weather Roundup
Issued by NWS

Home | Current Version | Previous Version | Text Only | Print | Product List | Glossary On
Versions: 1 2 3 4 5 6 7 8 9 10 11 12 13 14 15 16 17 18 19 20 21 22 23 24 25 26 27 28 29 30 31 32 33 34 35 36 37 38 39 40 41 42 43 44 45 46 47 48 49 50
000
ASUS43 KFSD 302210
RWRSD

WEATHER ROUNDUP FOR SOUTH DAKOTA
NATIONAL WEATHER SERVICE SIOUX FALLS SD
500 PM CDT TUE JUN 30 2015

NOTE: "FAIR" INDICATES FEW OR NO CLOUDS BELOW 12,000 FEET WITH NO
SIGNIFICANT WEATHER AND/OR OBSTRUCTIONS TO VISIBILITY.


SDZ001>005-009-010-012>017-302300-
NORTHWEST AND NORTH CENTRAL SOUTH DAKOTA

CITY           SKY/WX    TMP DP  RH WIND       PRES   REMARKS
BUFFALO          N/A     84  66  54 SE13      29.82F
FAITH            N/A     77  62  59 SE17      29.89F
MOBRIDGE       LGT RAIN  70  66  87 SE9       29.85F FOG
$$

SDZ012>016-024>037-041>051-057-063-072>074-302300-
SOUTHWEST AND SOUTH CENTRAL SOUTH DAKOTA

CITY           SKY/WX    TMP DP  RH WIND       PRES   REMARKS
RAPID CTY ARPT CLOUDY    84  71  65 E8        29.90F
PIERRE         CLOUDY    77  66  68 E10       29.89R
CUSTER         CLOUDY    79  57  46 NE8       30.07S
ELLSWORTH AFB  CLOUDY    82  66  57 NE7       29.90S
PHILIP         PTSUNNY   84  68  58 E12       29.86R
PINE RIDGE     MOSUNNY   90  56  31 NW3       29.88F
SPEARFISH      FAIR      84  64  51 NW9       29.96F
WINNER         FAIR      78  61  55 E16       29.87F
$$

SDZ004>011-016>023-039-040-302300-
NORTHEAST SOUTH DAKOTA

CITY           SKY/WX    TMP DP  RH WIND       PRES   REMARKS
ABERDEEN       CLOUDY    75  64  68 CALM      29.89F
WATERTOWN      CLOUDY    72  61  68 E7        29.91F
BROOKINGS      CLOUDY    73  63  68 E9        29.93R
SISSETON         N/A     74  60  61 SE7       29.90F
$$

SDZ017-020-022-023-036>040-048>070-302300-
SOUTHEAST SOUTH DAKOTA

CITY           SKY/WX    TMP DP  RH WIND       PRES   REMARKS
SIOUX FALLS    LGT RAIN  73  65  75 W3        29.92S
HURON          LGT RAIN  71  68  90 SE6       29.87F FOG
CHAMBERLAIN    CLOUDY    76  63  65 SE12      29.88F
MITCHELL       CLOUDY    73  69  87 CALM      29.91S
YANKTON        CLOUDY    72  66  83 E5        29.88F
$$

ABBREVIATIONS USED IN REMARKS
   TC - TEMPERATURE IN CELSIUS
  WCI - WIND CHILL INDEX
   HX - HEAT INDEX
  VSB - VISIBILITY



USA.gov is the U.S. government's official web portal to all federal, state and local government web resources and services.